KD5NDU-1 Weather Reports


Display with metric or nautical units.
time (UTC)temp
F
wind
direction
speed
MPH
gust
MPH
rain 1hr
in
rain 24hr
in
rain mn
in
humidity
%
barometer
mb
20260509173021 76 221 3.0 10.0 0.00 0.00 0.00 71 1012.7
20260509172504 76 223 2.0 9.0 0.00 0.00 0.00 72 1012.7
20260509172008 76 234 3.0 9.0 0.00 0.00 0.00 70 1012.6
20260509171516 76 277 5.0 8.0 0.00 0.00 0.00 71 1012.8
20260509171004 76 269 2.0 10.0 0.00 0.00 0.00 72 1012.8
20260509170508 76 192 3.0 10.0 0.00 0.00 0.00 72 1012.8
20260509170014 76 213 2.0 7.0 0.00 0.00 0.00 73 1012.8
20260509165511 76 191 1.0 7.0 0.00 0.00 0.00 70 1012.7
20260509165008 76 193 2.0 6.0 0.00 0.00 0.00 74 1012.6
20260509164512 75 213 2.0 6.0 0.00 0.00 0.00 71 1012.6
20260509164012 75 236 2.0 6.0 0.00 0.00 0.00 71 1012.5
20260509163510 75 212 1.0 6.0 0.00 0.00 0.00 72 1012.6
20260509163035 75 247 4.0 6.0 0.00 0.00 0.00 72 1012.7
20260509162511 74 215 3.0 6.0 0.00 0.00 0.00 72 1012.8
20260509162008 74 230 3.0 6.0 0.00 0.00 0.00 75 1012.8
20260509161523 74 242 3.0 6.0 0.00 0.00 0.00 74 1012.8
20260509160504 74 227 1.0 6.0 0.00 0.00 0.00 73 1012.5
20260509160024 74 227 3.0 7.0 0.00 0.00 0.00 74 1012.6
20260509155508 73 232 1.0 7.0 0.00 0.00 0.00 76 1012.6
20260509155010 73 267 3.0 7.0 0.00 0.00 0.00 75 1012.8
20260509154524 72 219 2.0 6.0 0.00 0.00 0.00 74 1012.9
20260509154006 72 119 2.0 5.0 0.00 0.00 0.00 76 1012.9
20260509153511 72 279 1.0 7.0 0.00 0.00 0.00 75 1012.8
20260509153022 72 212 1.0 8.0 0.00 0.00 0.00 76 1012.8
20260509152510 72 274 3.0 8.0 0.00 0.00 0.00 79 1012.7
20260509152014 71 290 2.0 8.0 0.00 0.00 0.00 80 1012.7
20260509151519 71 211 4.0 8.0 0.00 0.00 0.00 79 1012.7
20260509151008 71 213 3.0 8.0 0.00 0.00 0.00 80 1012.7
20260509150509 70 207 3.0 7.0 0.00 0.00 0.00 80 1012.7
20260509150030 70 223 4.0 6.0 0.00 0.00 0.00 82 1012.7
20260509145509 69 211 0.0 4.0 0.00 0.00 0.00 82 1012.7
20260509145012 69 276 1.0 6.0 0.00 0.00 0.00 83 1012.7
20260509144528 68 294 1.0 6.0 0.00 0.00 0.00 83 1012.6
20260509144010 68 238 2.0 5.0 0.00 0.00 0.00 84 1012.6
20260509143506 68 202 2.0 6.0 0.00 0.00 0.00 85 1012.6
20260509143029 67 254 0.0 6.0 0.00 0.00 0.00 87 1012.6
20260509142509 66 267 1.0 8.0 0.00 0.00 0.00 88 1012.7
20260509142010 66 267 2.0 8.0 0.00 0.00 0.00 88 1012.7
20260509141529 65 333 1.0 8.0 0.00 0.00 0.00 89 1012.8
20260509141009 65 271 2.0 8.0 0.00 0.00 0.00 90 1012.8
20260509140508 65 283 0.0 6.0 0.00 0.00 0.00 91 1012.7
20260509140022 65 274 2.0 8.0 0.00 0.00 0.00 91 1012.7
20260509135507 64 280 3.0 8.0 0.00 0.00 0.00 91 1012.7
20260509135012 64 269 2.0 6.0 0.00 0.00 0.00 92 1012.7
20260509134522 64 244 0.0 0.0 0.00 0.00 0.00 92 1012.6
20260509134012 64 238 0.0 0.0 0.00 0.00 0.00 92 1012.5
20260509133509 64 237 0.0 0.0 0.00 0.00 0.00 92 1012.4
20260509133018 64 237 0.0 1.0 0.00 0.00 0.00 92 1012.4
20260509132513 63 237 0.0 1.0 0.00 0.00 0.00 92 1012.5
20260509132011 63 237 0.0 1.0 0.00 0.00 0.00 92 1012.3
20260509131522 63 130 0.0 1.0 0.00 0.00 0.00 92 1012.2
20260509131015 62 160 0.0 0.0 0.00 0.00 0.00 92 1012.2
20260509130510 62 160 0.0 0.0 0.00 0.00 0.00 92 1012.2
20260509130027 61 157 0.0 1.0 0.00 0.00 0.00 92 1012.1
20260509125508 61 157 0.0 1.0 0.00 0.00 0.00 92 1012.2
20260509125009 61 157 0.0 1.0 0.00 0.00 0.00 92 1012.2
20260509124524 60 157 0.0 0.0 0.00 0.00 0.00 91 1012.3
20260509124010 60 157 0.0 0.0 0.00 0.00 0.00 91 1012.3
20260509123511 60 157 0.0 0.0 0.00 0.00 0.00 92 1012.3
20260509123025 60 157 0.0 0.0 0.00 0.00 0.00 92 1012.2
20260509122511 60 157 0.0 0.0 0.00 0.00 0.00 92 1012.3
20260509122010 60 157 0.0 0.0 0.00 0.00 0.00 92 1012.4
20260509121528 60 178 0.0 0.0 0.00 0.00 0.00 91 1012.4
20260509121007 60 178 0.0 0.0 0.00 0.00 0.00 91 1012.4
20260509120507 60 178 0.0 0.0 0.00 0.00 0.00 91 1012.2
20260509120024 59 178 0.0 0.0 0.00 0.00 0.00 92 1012.1
20260509115513 59 175 0.0 0.0 0.00 0.00 0.00 92 1011.9
20260509115009 59 175 0.0 0.0 0.00 0.00 0.00 91 1011.9
20260509114522 59 175 0.0 0.0 0.00 0.00 0.00 91 1011.9
20260509114009 59 175 0.0 0.0 0.00 0.00 0.00 91 1012.1
20260509113510 59 175 0.0 0.0 0.00 0.00 0.00 91 1012.1
20260509113028 59 175 0.0 0.0 0.00 0.00 0.00 91 1012.0
20260509112510 58 195 0.0 0.0 0.00 0.00 0.00 91 1012.0
20260509112012 58 195 0.0 0.0 0.00 0.00 0.00 91 1012.1
20260509111526 58 195 0.0 0.0 0.00 0.00 0.00 91 1012.1
20260509111009 58 195 0.0 0.0 0.00 0.00 0.00 91 1012.2
20260509110507 58 195 0.0 0.0 0.00 0.00 0.00 91 1012.1
20260509110028 58 195 0.0 0.0 0.00 0.00 0.00 91 1012.1
20260509105507 58 195 0.0 0.0 0.00 0.00 0.00 91 1012.0
20260509105011 58 195 0.0 0.0 0.00 0.00 0.00 91 1011.9
20260509104529 57 195 0.0 0.0 0.00 0.00 0.00 91 1011.6
20260509104008 57 195 0.0 0.0 0.00 0.00 0.00 91 1011.5
20260509103509 57 195 0.0 0.0 0.00 0.00 0.00 91 1011.3
20260509103025 57 195 0.0 0.0 0.00 0.00 0.00 90 1011.2
20260509102509 57 195 0.0 0.0 0.00 0.00 0.00 90 1011.1
20260509102011 57 195 0.0 0.0 0.00 0.00 0.00 91 1011.1
20260509101524 57 195 0.0 0.0 0.00 0.00 0.00 90 1011.0
20260509101008 57 195 0.0 0.0 0.00 0.00 0.00 91 1011.0
20260509100510 57 195 0.0 0.0 0.00 0.00 0.00 91 1011.0
20260509100024 57 195 0.0 0.0 0.00 0.00 0.00 91 1010.9
20260509095507 57 195 0.0 0.0 0.00 0.00 0.00 91 1010.9
20260509095007 57 195 0.0 0.0 0.00 0.00 0.00 91 1010.8
20260509094528 57 195 0.0 0.0 0.00 0.00 0.00 91 1010.7
20260509094006 57 195 0.0 0.0 0.00 0.00 0.00 91 1010.5
20260509093508 57 195 0.0 0.0 0.00 0.00 0.00 91 1010.3
20260509093027 56 195 0.0 0.0 0.00 0.00 0.00 91 1010.2
20260509092510 56 195 0.0 0.0 0.00 0.00 0.00 92 1010.2
20260509092010 55 195 0.0 0.0 0.00 0.00 0.00 91 1010.2
20260509091533 55 195 0.0 1.0 0.00 0.00 0.00 91 1010.2
20260509091009 54 195 0.0 1.0 0.00 0.00 0.00 90 1010.3
20260509090509 54 195 0.0 1.0 0.00 0.00 0.00 90 1010.3
20260509090028 54 195 0.0 0.0 0.00 0.00 0.00 90 1010.5
20260509085506 54 195 0.0 0.0 0.00 0.00 0.00 90 1010.5
20260509085009 54 195 0.0 0.0 0.00 0.00 0.00 91 1010.5
20260509084529 54 195 0.0 0.0 0.00 0.00 0.00 91 1010.6
20260509084008 54 195 0.0 0.0 0.00 0.00 0.00 91 1010.7
20260509083508 53 195 0.0 0.0 0.00 0.00 0.00 90 1010.7
20260509083026 53 195 0.0 0.0 0.00 0.00 0.00 90 1010.7
20260509082507 53 195 0.0 0.0 0.00 0.00 0.00 89 1010.7
20260509082011 53 195 0.0 0.0 0.00 0.00 0.00 89 1010.8
20260509081524 53 195 0.0 0.0 0.00 0.00 0.00 89 1010.8
20260509081010 53 195 0.0 0.0 0.00 0.00 0.00 89 1010.6
20260509080504 53 195 0.0 0.0 0.00 0.00 0.00 89 1010.7
20260509080004 54 195 0.0 0.0 0.00 0.00 0.00 90 1010.8
20260509075505 53 195 0.0 0.0 0.00 0.00 0.00 90 1010.7
20260509075006 53 195 0.0 0.0 0.00 0.00 0.00 90 1010.7
20260509074518 53 195 0.0 1.0 0.00 0.00 0.00 89 1010.6
20260509074006 53 195 0.0 1.0 0.00 0.00 0.00 89 1010.7
20260509073503 53 195 0.0 1.0 0.00 0.00 0.00 89 1010.9
20260509073035 53 195 0.0 1.0 0.00 0.00 0.00 89 1011.1
20260509072504 54 195 0.0 1.0 0.00 0.00 0.00 89 1011.1
20260509072009 54 195 0.0 1.0 0.00 0.00 0.00 89 1011.2
20260509071514 54 195 0.0 1.0 0.00 0.00 0.00 89 1011.2
20260509071005 54 195 0.0 0.0 0.00 0.00 0.00 89 1011.2
20260509070511 54 195 0.0 0.0 0.00 0.00 0.00 89 1011.3
20260509070011 54 195 0.0 1.0 0.00 0.00 0.00 89 1011.4
20260509065507 54 195 0.0 1.0 0.00 0.00 0.00 89 1011.4
20260509065008 54 195 0.0 0.0 0.00 0.00 0.00 88 1011.5
20260509064508 54 195 0.0 0.0 0.00 0.00 0.00 88 1011.7
20260509064008 54 195 0.0 0.0 0.00 0.00 0.00 89 1011.8
20260509063506 54 195 0.0 0.0 0.00 0.00 0.00 88 1011.7
20260509063008 54 195 0.0 0.0 0.00 0.00 0.00 88 1011.7
20260509062513 55 195 0.0 0.0 0.00 0.00 0.00 88 1011.8
20260509062006 55 195 0.0 0.0 0.00 0.00 0.00 89 1011.9
20260509061524 55 195 0.0 0.0 0.00 0.00 0.00 89 1012.0
20260509061011 55 195 0.0 1.0 0.00 0.00 0.00 89 1012.1
20260509060508 55 195 0.0 1.0 0.00 0.00 0.00 89 1012.3
20260509060028 55 195 0.0 1.0 0.00 0.00 0.00 89 1012.2
20260509055508 55 195 0.0 0.0 0.00 0.00 0.00 88 1012.1
20260509055005 55 195 0.0 0.0 0.00 0.00 0.00 88 1012.0
20260509054529 55 195 0.0 0.0 0.00 0.00 0.00 88 1011.9
20260509054008 55 195 0.0 0.0 0.00 0.00 0.00 89 1012.2
20260509053511 55 195 0.0 0.0 0.00 0.00 0.00 89 1012.5
20260509053026 55 195 0.0 0.0 0.00 0.00 0.00 88 1012.7
20260509052506 55 195 0.0 1.0 0.00 0.00 0.00 88 1012.7
20260509052010 55 195 0.0 2.0 0.00 0.00 0.00 88 1012.9
20260509051512 55 195 0.0 2.0 0.00 0.00 0.00 87 1013.0
20260509051009 55 195 0.0 2.0 0.00 0.00 0.00 87 1012.9
20260509050514 55 195 0.0 0.0 0.00 0.00 0.00 87 1012.8
20260509050012 55 195 0.0 0.0 0.00 0.00 0.00 87 1012.8
20260509045507 55 195 0.0 0.0 0.00 0.00 0.00 87 1012.8
20260509045007 56 195 0.0 0.0 0.00 0.00 0.00 87 1012.6
20260509044513 56 196 0.0 0.0 0.00 0.00 0.00 87 1012.3
20260509044007 56 195 0.0 0.0 0.00 0.00 0.00 87 1012.1
20260509043507 56 195 0.0 0.0 0.00 0.00 0.00 87 1012.1
20260509043040 57 195 0.0 0.0 0.00 0.00 0.00 87 1012.1
20260509042508 57 195 0.0 0.0 0.00 0.00 0.00 87 1012.1
20260509042007 57 195 0.0 0.0 0.00 0.00 0.00 87 1012.0
20260509041522 57 195 0.0 3.0 0.00 0.00 0.00 87 1012.1
20260509041011 57 195 0.0 3.0 0.00 0.00 0.00 87 1012.1
20260509040503 57 195 1.0 3.0 0.00 0.00 0.00 87 1012.1
20260509040022 57 196 0.0 1.0 0.00 0.00 0.00 87 1012.2
20260509035509 57 196 0.0 1.0 0.00 0.00 0.00 87 1012.2
20260509035012 57 196 0.0 0.0 0.00 0.00 0.00 86 1012.3
20260509034532 57 196 0.0 0.0 0.00 0.00 0.00 87 1012.4
20260509034005 57 196 0.0 0.0 0.00 0.00 0.00 86 1012.5
20260509033507 57 196 0.0 0.0 0.00 0.00 0.00 86 1012.6
20260509033016 56 196 0.0 0.0 0.00 0.00 0.00 86 1012.6
20260509032514 56 196 0.0 0.0 0.00 0.00 0.00 86 1012.6
20260509032013 57 196 0.0 0.0 0.00 0.00 0.00 85 1012.6
20260509031513 57 196 0.0 0.0 0.00 0.00 0.00 85 1012.5
20260509031012 57 196 0.0 0.0 0.00 0.00 0.00 85 1012.4
20260509030511 57 196 0.0 0.0 0.00 0.00 0.00 84 1012.4
20260509030007 57 196 0.0 0.0 0.00 0.00 0.00 84 1012.4
20260509025510 57 196 0.0 0.0 0.00 0.00 0.00 84 1012.5
20260509025013 58 196 0.0 0.0 0.00 0.00 0.00 84 1012.4
20260509024526 58 196 0.0 0.0 0.00 0.00 0.00 84 1012.2
20260509024011 58 196 0.0 0.0 0.00 0.00 0.00 84 1012.2
20260509023503 58 196 0.0 0.0 0.00 0.00 0.00 83 1012.2
20260509023027 59 196 0.0 0.0 0.00 0.00 0.00 83 1012.2
20260509022506 59 196 0.0 0.0 0.00 0.00 0.00 82 1012.2
20260509022011 59 196 0.0 0.0 0.00 0.00 0.00 82 1012.2
20260509021523 59 196 0.0 0.0 0.00 0.00 0.00 83 1012.2
20260509021010 60 196 0.0 0.0 0.00 0.00 0.00 82 1012.2
20260509020505 60 196 0.0 1.0 0.00 0.00 0.00 82 1012.1
20260509020006 60 196 0.0 1.0 0.00 0.00 0.00 81 1012.1
20260509015508 60 196 0.0 0.0 0.00 0.00 0.00 81 1012.1
20260509015005 60 196 0.0 0.0 0.00 0.00 0.00 81 1012.1
20260509014506 61 196 0.0 3.0 0.00 0.00 0.00 81 1012.0
20260509014005 61 196 0.0 3.0 0.00 0.00 0.00 80 1011.9
20260509013507 61 196 0.0 3.0 0.00 0.00 0.00 80 1011.8
20260509013013 62 196 0.0 4.0 0.00 0.00 0.00 80 1011.9
20260509012504 62 196 0.0 4.0 0.00 0.00 0.00 79 1011.9
20260509012006 62 196 1.0 3.0 0.00 0.00 0.00 79 1011.8
20260509011508 63 196 1.0 3.0 0.00 0.00 0.00 78 1011.9
20260509011002 63 198 0.0 2.0 0.00 0.00 0.00 77 1012.1
20260509010504 64 198 0.0 0.0 0.00 0.00 0.00 77 1012.2
20260509010007 64 198 0.0 2.0 0.00 0.00 0.00 76 1012.2
20260509005503 64 198 0.0 2.0 0.00 0.00 0.00 75 1012.1
20260509005003 65 198 0.0 3.0 0.00 0.00 0.00 74 1012.2
20260509004517 65 198 0.0 6.0 0.00 0.00 0.00 73 1012.2
20260509004007 66 227 1.0 6.0 0.00 0.00 0.00 73 1012.2
20260509003504 66 162 3.0 5.0 0.00 0.00 0.00 72 1012.2
20260509003006 66 163 0.0 6.0 0.00 0.00 0.00 71 1012.1
20260509002506 67 161 1.0 6.0 0.00 0.00 0.00 71 1011.9
20260509002006 67 167 2.0 6.0 0.00 0.00 0.00 71 1011.9
20260509001510 67 157 2.0 5.0 0.00 0.00 0.00 70 1011.9
20260509001003 67 182 2.0 7.0 0.00 0.00 0.00 69 1011.9
20260509000502 67 207 1.0 7.0 0.00 0.00 0.00 69 1012.0
20260509000008 68 193 3.0 7.0 0.00 0.00 0.00 67 1012.0
20260508235504 68 171 2.0 5.0 0.00 0.00 0.00 67 1012.3
20260508235007 68 207 3.0 6.0 0.00 0.00 0.00 67 1012.3
20260508234510 68 214 1.0 6.0 0.00 0.00 0.00 67 1012.4
20260508234007 68 211 2.0 7.0 0.00 0.00 0.00 66 1012.5
20260508233503 68 188 3.0 8.0 0.00 0.00 0.00 66 1012.5
20260508233008 68 185 2.0 11.0 0.00 0.00 0.00 65 1012.5
20260508232506 68 209 2.0 11.0 0.00 0.00 0.00 65 1012.6
20260508232006 69 140 3.0 10.0 0.00 0.00 0.00 64 1012.5
20260508231509 69 197 6.0 10.0 0.00 0.00 0.00 63 1012.4
20260508231008 69 172 4.0 9.0 0.00 0.00 0.00 63 1012.5
20260508230504 69 187 3.0 14.0 0.00 0.00 0.00 62 1012.5
20260508230032 70 217 5.0 14.0 0.00 0.00 0.00 61 1012.4
20260508225503 70 184 6.0 13.0 0.00 0.00 0.00 62 1012.4
20260508225005 70 214 7.0 10.0 0.00 0.00 0.00 60 1012.5
20260508224506 71 189 4.0 10.0 0.00 0.00 0.00 60 1012.6
20260508224005 71 207 5.0 9.0 0.00 0.00 0.00 65 1012.5
20260508223507 70 185 3.0 9.0 0.00 0.00 0.00 65 1012.4
20260508223011 70 196 3.0 9.0 0.00 0.00 0.00 65 1012.5
20260508222507 70 156 3.0 8.0 0.00 0.00 0.00 64 1012.5
20260508222006 70 197 2.0 8.0 0.00 0.00 0.00 64 1012.5
20260508221514 70 194 2.0 7.0 0.00 0.00 0.00 64 1012.4
20260508221008 70 205 2.0 7.0 0.00 0.00 0.00 65 1012.4
20260508220505 70 157 3.0 6.0 0.00 0.00 0.00 66 1012.4
20260508220016 70 148 3.0 8.0 0.00 0.00 0.00 63 1012.4
20260508215509 70 203 2.0 9.0 0.00 0.00 0.00 64 1012.5
20260508215004 70 188 3.0 9.0 0.00 0.00 0.00 64 1012.6
20260508214514 70 163 4.0 11.0 0.00 0.00 0.00 65 1012.7
20260508214005 70 155 5.0 11.0 0.00 0.00 0.00 64 1012.7
20260508213508 70 159 6.0 11.0 0.00 0.00 0.00 64 1012.7
20260508213012 70 202 4.0 10.0 0.00 0.00 0.00 64 1012.9
20260508212504 70 171 4.0 9.0 0.00 0.00 0.00 61 1013.0
20260508212013 70 225 3.0 13.0 0.00 0.00 0.00 62 1013.2
20260508211516 70 191 6.0 13.0 0.00 0.00 0.00 62 1013.2
20260508211004 71 190 7.0 10.0 0.00 0.00 0.00 59 1013.2
20260508210506 71 217 4.0 11.0 0.00 0.00 0.00 57 1013.2
20260508210012 72 168 4.0 12.0 0.00 0.00 0.00 60 1013.2
20260508205507 73 194 6.0 12.0 0.00 0.00 0.00 61 1013.1
20260508205007 73 222 4.0 9.0 0.00 0.00 0.00 58 1013.0
20260508204506 73 199 4.0 10.0 0.00 0.00 0.00 61 1013.1
20260508204006 72 205 6.0 10.0 0.00 0.00 0.00 58 1013.3
20260508203505 72 189 4.0 11.0 0.00 0.00 0.00 60 1013.3
20260508203017 72 212 6.0 11.0 0.00 0.00 0.00 56 1013.4
20260508202510 72 133 6.0 11.0 0.00 0.00 0.00 57 1013.5
20260508202006 72 196 4.0 10.0 0.00 0.00 0.00 56 1013.5
20260508201515 72 158 4.0 10.0 0.00 0.00 0.00 57 1013.5
20260508201007 72 164 3.0 10.0 0.00 0.00 0.00 56 1013.5
20260508200503 72 197 6.0 10.0 0.00 0.00 0.00 58 1013.7
20260508200017 73 219 3.0 13.0 0.00 0.00 0.00 55 1013.8
20260508195504 73 141 7.0 13.0 0.00 0.00 0.00 56 1013.9
20260508195013 73 145 7.0 13.0 0.00 0.00 0.00 57 1013.9
20260508194517 73 194 4.0 10.0 0.00 0.00 0.00 61 1013.9
20260508194004 72 211 5.0 10.0 0.00 0.00 0.00 61 1014.0
20260508193507 72 153 6.0 9.0 0.00 0.00 0.00 59 1014.0
20260508193014 72 205 3.0 9.0 0.00 0.00 0.00 59 1014.0
20260508192506 72 144 4.0 9.0 0.00 0.00 0.00 57 1013.9
20260508192008 73 205 4.0 9.0 0.00 0.00 0.00 58 1014.0
20260508191516 73 64 3.0 8.0 0.00 0.00 0.00 61 1014.1
20260508191008 72 116 3.0 7.0 0.00 0.00 0.00 60 1014.1
20260508190508 71 171 1.0 10.0 0.00 0.00 0.00 58 1014.3
20260508190008 71 168 4.0 10.0 0.00 0.00 0.00 58 1014.3
20260508185508 71 138 1.0 11.0 0.00 0.00 0.00 56 1014.4
20260508185012 71 180 4.0 11.0 0.00 0.00 0.00 56 1014.3
20260508184535 71 147 6.0 10.0 0.00 0.00 0.00 56 1014.5
20260508184009 71 213 4.0 9.0 0.00 0.00 0.00 57 1014.6
20260508183504 70 134 5.0 11.0 0.00 0.00 0.00 56 1014.3
20260508183018 70 140 4.0 11.0 0.00 0.00 0.00 55 1014.6
20260508182508 71 184 4.0 11.0 0.00 0.00 0.00 57 1014.7
20260508182005 71 150 5.0 11.0 0.00 0.00 0.00 56 1014.9
20260508181537 71 139 4.0 11.0 0.00 0.00 0.00 54 1015.0
20260508181007 71 209 4.0 11.0 0.00 0.00 0.00 58 1015.0
20260508180510 71 153 4.0 10.0 0.00 0.00 0.00 59 1015.1
20260508180019 72 154 3.0 9.0 0.00 0.00 0.00 57 1015.3
20260508175503 71 196 1.0 9.0 0.00 0.00 0.00 56 1015.2
20260508175011 71 153 5.0 11.0 0.00 0.00 0.00 56 1015.2
20260508174517 72 281 2.0 11.0 0.00 0.00 0.00 51 1015.3
20260508174009 72 209 4.0 10.0 0.00 0.00 0.00 54 1015.5
20260508173509 72 191 2.0 9.0 0.00 0.00 0.00 56 1015.6